This demonstration page uses our WeatherBlox Daily Observations layout. Learn more.

Left ArrowRight Arrow

Hourly Observations for October 1, 2015

Temp ( °F °C ) Dew Point ( °F °C ) Humidity (%) Winds ( mph kmh ) Pressure ( in mb ) Visibility ( mi km ) Precip ( " mm )
12:59 am 00:59 Cloudy with Rain 71 21.7 68 20 90 90 N 14 22 29.84 1010 6 10 0.16 4.06
1:59 am 01:59 Cloudy with Rain 71 21.7 69 20.6 94 94 NNE 13 20 29.83 1010 4 6 0.12 3.05
2:59 am 02:59 Cloudy with Light Rain 71 21.7 68 20 90 90 NNE 14 22 29.82 1010 7 11 0.11 2.79
3:59 am 03:59 Cloudy with Light Rain 70 21.1 68 20 93 93 N 14 22 29.83 1010 6 10 0.00 0.03
4:59 am 04:59 Cloudy with Light Rain 69 20.6 67 19.4 93 93 NE 17 28 29.83 1010 3 5 0.04 1.02
5:59 am 05:59 Cloudy with Light Rain 69 20.6 67 19.4 93 93 N 16 26 29.85 1011 3 5 0.01 0.25
6:57 am 06:57 Cloudy with Light Rain 70 21 66 19 88 88 NNE 16 26 29.85 1011 3 5 0.00 0.03
6:59 am 06:59 Cloudy with Light Rain 69 20.6 66 18.9 90 90 NNE 17 28 29.85 1011 3 5 0.00 0.03
7:06 am 07:06 Cloudy with Light Rain 69 20.6 66 18.9 90 90 NNE 16 26 29.85 1011 3 5 0.00 0.03
7:59 am 07:59 Cloudy with Mist and Fog 69 20.6 66 18.9 90 90 NNE 16 26 29.86 1011 5 8 0.00 0.03
8:50 am 08:50 Cloudy with Light Rain 69 20.6 66 18.9 90 90 NNE 17 28 29.88 1012 3 4 0.01 0.25
8:59 am 08:59 Cloudy with Rain 69 20.6 66 18.9 90 90 NNE 14 22 29.88 1012 1 2 0.03 0.76
9:19 am 09:19 Cloudy with Light Rain 69 20.6 66 18.9 90 90 NNE 16 26 29.88 1012 2 3 0.02 0.51
9:57 am 09:57 Cloudy with Light Rain 70 21 66 19 88 88 NNE 21 33 29.88 1012 4 6 0.05 1.27
9:59 am 09:59 Cloudy with Light Rain 69 20.6 66 18.9 90 90 NNE 23 37 29.88 1012 4 6 0.05 1.27
10:59 am 10:59 Cloudy with Drizzle 69 20.6 65 18.3 87 87 NNE 17 28 29.88 1012 5 8 0.00 0.03
11:21 am 11:21 Cloudy with Light Rain 69 20.6 65 18.3 87 87 N 18 30 29.88 1012 2 3 0.01 0.25
11:32 am 11:32 Cloudy with Light Rain 68 20 66 18.9 93 93 NNE 17 28 29.88 1012 2 2 0.02 0.51
11:35 am 11:35 Cloudy with Light Rain 68 20 65 18.3 90 90 N 18 30 29.88 1012 2 3 0.02 0.51
11:59 am 11:59 Cloudy with Light Rain 68 20 65 18.3 90 90 N 18 30 29.88 1012 2 2 0.03 0.76
12:23 pm 12:23 Cloudy with Light Rain 68 20 66 18.9 93 93 NNE 17 28 29.88 1012 2 3 0.01 0.25
12:59 pm 12:59 Cloudy with Light Rain 68 20 65 18.3 90 90 NNE 20 31 29.90 1012 2 2 0.04 1.02
1:06 pm 13:06 Cloudy with Rain 67 19.4 65 18.3 93 93 NNE 17 28 29.91 1013 1 2 0.02 0.51
1:15 pm 13:15 Cloudy with Light Rain 68 20 65 18.3 90 90 N 15 24 29.88 1012 2 2 0.04 1.02
1:21 pm 13:21 Cloudy with Light Rain 68 20 65 18.3 90 90 NNE 16 26 29.88 1012 2 3 0.05 1.27
1:35 pm 13:35 Cloudy with Rain 68 20 65 18.3 90 90 N 20 31 29.88 1012 2 2 0.08 2.03
1:57 pm 13:57 Cloudy with Heavy Rain 68 20 64 18 88 88 N 17 28 29.88 1012 1 1 0.15 3.81
1:58 pm 13:58 Cloudy with Heavy Rain 68 20 65 18.3 90 90 N 17 28 29.88 1012 1 1 0.16 4.06
2:14 pm 14:14 Cloudy with Heavy Rain 67 19.4 65 18.3 93 93 N 22 35 29.88 1012 1 2 0.08 2.03
2:42 pm 14:42 Cloudy with Rain 67 19.4 64 17.8 91 91 N 20 31 29.88 1012 2 3 0.12 3.05
2:59 pm 14:59 Cloudy with Light Rain 67 19.4 64 17.8 91 91 N 20 31 29.87 1012 2 3 0.13 3.30
3:43 pm 15:43 Cloudy with Rain 66 18.9 63 17.2 90 90 N 20 31 29.88 1012 2 2 0.04 1.02
3:59 pm 15:59 Cloudy with Light Rain 66 18.9 64 17.8 93 93 N 21 33 29.88 1012 2 2 0.06 1.52
4:07 pm 16:07 Cloudy with Light Rain 66 18.9 64 17.8 93 93 N 20 31 29.88 1012 2 3 0.00 0.03
4:45 pm 16:45 Cloudy with Light Rain 65 18.3 63 17.2 93 93 N 18 30 29.91 1013 2 3 0.02 0.51
4:55 pm 16:55 Cloudy with Light Rain 64 18 63 17 94 94 NNE 22 35 29.91 1013 2 3 0.02 0.51
4:56 pm 16:56 Cloudy with Light Rain 64 18 63 17 94 94 NNE 22 35 29.91 1013 2 3 0.02 0.51
4:59 pm 16:59 Cloudy with Light Rain 65 18.3 63 17.2 93 93 N 17 28 29.90 1013 2 3 0.02 0.51
5:09 pm 17:09 Cloudy with Light Rain 65 18.3 63 17.2 93 93 N 21 33 29.91 1013 2 2 0.01 0.25
5:20 pm 17:20 Cloudy with Light Rain 65 18.3 63 17.2 93 93 N 24 39 29.91 1013 2 3 0.02 0.51
5:30 pm 17:30 Cloudy with Light Rain 66 18.9 63 17.2 90 90 N 20 31 29.91 1013 2 3 0.02 0.51
5:59 pm 17:59 Cloudy with Light Rain 66 18.9 63 17.2 90 90 N 22 35 29.91 1013 2 3 0.03 0.76
6:41 pm 18:41 Cloudy with Light Rain 65 18.3 63 17.2 93 93 NNE 24 39 29.91 1013 4 6 0.01 0.25
6:59 pm 18:59 Cloudy with Light Rain 66 18.9 63 17.2 90 90 NNE 21 33 29.92 1013 5 8 0.01 0.25
7:59 pm 19:59 Cloudy with Light Rain 66 18.9 62 16.7 87 87 NNE 17 28 29.92 1013 7 11 0.01 0.25
8:59 pm 20:59 Cloudy 66 18.9 62 16.7 87 87 NNE 25 41 29.91 1013 9 14 0.00 0.03
9:49 pm 21:49 Cloudy 66 18.9 61 16.1 84 84 NNE 20 31 29.91 1013 10 16 0.00 0.00
9:59 pm 21:59 Cloudy 66 18.9 61 16.1 84 84 NNE 17 28 29.91 1013 10 16 0.00 0.00
10:59 pm 22:59 Cloudy with Light Rain 65 18.3 62 16.7 90 90 NNE 16 26 29.91 1013 5 8 0.00 0.03
11:59 pm 23:59 Cloudy with Light Rain 65 18.3 62 16.7 90 90 NNE 20 31 29.91 1013 4 6 0.02 0.51

Powered by AerisWeather